Terminal Aerodrome Forecast
Issued by NWS Twin Cities, MN

Home | Current Version | Previous Version | Graphics & Text | Print | Product List | Glossary On
Versions: 1 2 3 4 5 6 7 8 9 10 11 12 13 14 15 16 17 18 19 20 21 22 23 24 25 26
000
FTUS43 KMPX 150800 AAA
TAFMSP
TAF AMD
KMSP 150810Z 1508/1612 36004KT P6SM SCT050 OVC070
     FM150930 35004KT P6SM -RA OVC050
     FM151500 32008KT P6SM BKN060
     FM151900 31009G15KT P6SM SCT250
     FM160100 VRB03KT P6SM SKC=

USA.gov is the U.S. government's official web portal to all federal, state and local government web resources and services.